Oshkosh, WI

9:15 PM CDT on August 30, 2016 (GMT -0500)
Wittman Regional

Weather History for KOSH - February, 2013

Change the Weather History Date:

Saturday, February 9, 2013

  Actual Average Record
Temperature  
Mean Temperature 14 °F -  
Max Temperature 27 °F 26 °F 50 °F (1990)
Min Temperature 0 °F 6 °F -23 °F (1951)
Degree Days  
Heating Degree Days 52    
Moisture  
Dew Point 14 °F    
Average Humidity 87    
Maximum Humidity 93    
Minimum Humidity 78    
Precipitation  
Precipitation 0.00 in - - ()
Sea Level Pressure  
Sea Level Pressure 30.29 in    
Wind  
Wind Speed 6 mph (South)    
Max Wind Speed 20 mph    
Max Gust Speed -    
Visibility 5 miles    
Events Fog , Snow    
Averages and records for this station are not official NWS values.
T = Trace of Precipitation, MM = Missing Value Source: NWS Daily Summary

Daily Weather History Graph

Daily Weather History Graph

Search for Another Location

Airport or City:

Trip Planner

Search our weather history database for the weather conditions in past years. The results will help you decide how hot, cold, wet, or windy it might be!

Date:

Astronomy

Feb. 09, 2013 Rise Set
Actual Time 7:01 AM CST 5:16 PM CST
Civil Twilight 6:31 AM CST 5:46 PM CST
Nautical Twilight 5:57 AM CST 6:20 PM CST
Astronomical Twilight 5:23 AM CST 6:53 PM CST
Moon 6:12 AM CST (2/9) 4:59 PM CST (2/9)
Length of Visible Light 11h 14m
Length of Day
10h 14m
Waning Crescent, 0% of the Moon is Illuminated
Feb 9
Waning Crescent
Feb 10
New
Feb 17
First Quarter
Feb 25
Full
Mar 4
Last Quarter

Hourly Weather History & Observations

Time (CST) Temp. Windchill Dew Point Humidity Pressure Visibility Wind Dir Wind Speed Gust Speed Precip Events Conditions
12:53 AM 5.0 °F - -0.0 °F 80% 30.44 in 7.0 mi Calm Calm - N/A   Clear
1:53 AM 3.0 °F - -0.9 °F 84% 30.45 in 7.0 mi Calm Calm - N/A   Clear
2:53 AM 3.9 °F - 1.9 °F 91% 30.43 in 4.0 mi Calm Calm - N/A   Clear
3:33 AM 1.4 °F -12.5 °F -0.4 °F 92% 30.34 in 2.5 mi South 8.1 mph - N/A   Scattered Clouds
3:42 AM -0.4 °F -14.7 °F -4.0 °F 85% 30.35 in 1.8 mi South 8.1 mph - N/A   Mostly Cloudy
3:53 AM 6.1 °F -6.8 °F 3.0 °F 87% 30.43 in 1.2 mi SSW 8.1 mph - 0.00 in Snow Light Snow
4:02 AM 6.8 °F -7.8 °F 5.0 °F 92% 30.36 in 0.5 mi SSW 10.4 mph - 0.00 in Fog , Snow Light Snow
4:53 AM 10.0 °F - 8.1 °F 92% 30.42 in 0.2 mi Calm Calm - 0.00 in Fog Light Freezing Fog
5:53 AM 10.0 °F - 8.1 °F 92% 30.42 in 0.2 mi Calm Calm - N/A Fog Light Freezing Fog
6:20 AM 10.4 °F - 8.6 °F 92% 30.33 in 0.5 mi Calm Calm - N/A Fog Light Freezing Fog
6:53 AM 12.0 °F 5.9 °F 10.0 °F 92% 30.42 in 0.5 mi SSE 3.5 mph - N/A Fog Light Freezing Fog
7:09 AM 12.2 °F 6.1 °F 10.4 °F 92% 30.33 in 0.2 mi SE 3.5 mph - N/A Fog Light Freezing Fog
7:53 AM 14.0 °F 8.2 °F 12.0 °F 92% 30.40 in 0.5 mi SE 3.5 mph - N/A Fog Light Freezing Fog
8:14 AM 15.8 °F 8.6 °F 14.0 °F 93% 30.31 in 0.2 mi SSE 4.6 mph - N/A Fog Light Freezing Fog
8:40 AM 17.6 °F 12.3 °F 15.8 °F 93% 30.30 in 1.0 mi SSE 3.5 mph - N/A   Overcast
8:53 AM 18.0 °F 11.1 °F 16.0 °F 92% 30.38 in 1.5 mi SSE 4.6 mph - N/A   Overcast
9:15 AM 19.4 °F 10.4 °F 17.6 °F 93% 30.29 in 4.0 mi South 6.9 mph - N/A   Overcast
9:53 AM 21.9 °F 6.9 °F 19.0 °F 89% 30.35 in 5.0 mi South 19.6 mph - N/A   Overcast
10:18 AM 23.0 °F 9.6 °F 19.4 °F 86% 30.26 in 6.0 mi South 16.1 mph - N/A   Overcast
10:53 AM 21.9 °F 7.8 °F 18.0 °F 85% 30.35 in 5.0 mi South 17.3 mph - N/A   Overcast
11:53 AM 23.0 °F 9.2 °F 19.0 °F 85% 30.32 in 8.0 mi South 17.3 mph - N/A   Overcast
12:53 PM 24.1 °F 10.6 °F 19.9 °F 84% 30.30 in 10.0 mi South 17.3 mph - N/A   Overcast
1:53 PM 26.1 °F 14.0 °F 19.9 °F 78% 30.27 in 8.0 mi South 15.0 mph - N/A   Overcast
2:53 PM 26.1 °F 15.0 °F 21.0 °F 81% 30.26 in 8.0 mi South 12.7 mph - N/A   Overcast
3:46 PM 26.6 °F 16.2 °F 21.2 °F 80% 30.17 in 10.0 mi South 11.5 mph - N/A   Overcast
3:53 PM 27.0 °F 16.7 °F 21.0 °F 78% 30.24 in 10.0 mi South 11.5 mph - N/A   Overcast
4:53 PM 26.1 °F 15.0 °F 21.0 °F 81% 30.22 in 9.0 mi South 12.7 mph - N/A   Overcast
5:00 PM 26.6 °F 14.3 °F 21.2 °F 80% 30.15 in 9.0 mi South 16.1 mph - N/A   Overcast
5:53 PM 26.1 °F 15.0 °F 21.0 °F 81% 30.21 in 10.0 mi South 12.7 mph - N/A   Overcast
6:53 PM 26.1 °F 15.6 °F 21.0 °F 81% 30.19 in 10.0 mi South 11.5 mph - N/A   Overcast
7:53 PM 26.1 °F 14.5 °F 21.0 °F 81% 30.18 in 10.0 mi South 13.8 mph - N/A   Overcast
8:53 PM 26.1 °F 15.6 °F 21.9 °F 84% 30.17 in 9.0 mi South 11.5 mph - N/A   Overcast
9:53 PM 27.0 °F 17.3 °F 21.9 °F 81% 30.16 in 8.0 mi South 10.4 mph - N/A   Overcast
10:53 PM 25.0 °F 18.1 °F 21.9 °F 88% 30.14 in 8.0 mi South 5.8 mph - N/A   Overcast
11:16 PM 23.0 °F 18.4 °F 19.4 °F 86% 30.08 in 7.0 mi SE 3.5 mph - N/A   Mostly Cloudy
11:31 PM 21.2 °F - 19.4 °F 93% 30.08 in 5.0 mi Calm Calm - N/A   Scattered Clouds
11:53 PM 21.0 °F - 19.0 °F 92% 30.13 in 4.0 mi Calm Calm - N/A   Clear